Regional Weather Roundup
Issued by NWS Northern Indiana

Home | Current Version | Previous Version | Graphics & Text | Print | Product List | Glossary On
Versions: 1 2 3 4 5 6 7 8 9 10 11 12 13 14 15 16 17 18 19 20 21 22 23 24 25 26 27 28 29 30 31 32 33 34 35 36 37 38 39 40 41 42 43 44 45 46 47 48 49 50
000
ASUS43 KIWX 021710
RWRIWX

KIWX WEATHER ROUNDUP
NATIONAL WEATHER SERVICE NORTHERN INDIANA
100 PM EDT SUN AUG 02 2015

NOTE: "FAIR" INDICATES FEW OR NO CLOUDS BELOW 12,000 FEET WITH NO
SIGNIFICANT WEATHER AND/OR OBSTRUCTIONS TO VISIBILITY.

* THESE STATIONS ARE NOT UNDER NWS QUALITY CONTROL. THEY ALSO MAY NOT
  REPORT WEATHER SUCH AS PRECIPITATION OR FOG.

INZ001>027-021800-
NORTHERN INDIANA

CITY           SKY/WX    TMP DP  RH WIND       PRES   REMARKS
GARY*          MOSUNNY   88  66  48 SW16G30   29.83F
VALPARAISO     SUNNY     88  68  51 SW18G30   29.85F
MICHIGAN CITY* SUNNY     86  64  48 SW16G22   29.83F
LAPORTE*       SUNNY     88  69  53 SW18G24   29.86S
KNOX*          SUNNY     84  64  51 SW15G23   29.85F
SOUTH BEND     SUNNY     88  67  49 SW17G24   29.85F
ELKHART*       SUNNY     86  66  51 SW15G21   29.86F
GOSHEN         SUNNY     85  70  60 SW16G23   29.86F
MONTICELLO*    SUNNY     84  72  65 SW13      29.89F
LOGANSPORT*    SUNNY     84  63  48 SW14      29.91F
ROCHESTER*     SUNNY     86  72  62 SW10G17   29.89F
WARSAW*        MOSUNNY   84  70  61 SW10G18   29.89F
ANGOLA*        SUNNY     86  81  84 SW14      29.87F HX 102
FORT WAYNE     MOSUNNY   84  67  56 SW17      29.92F
HUNTINGTON*    SUNNY     83  67  57 SW10      29.91F
PERU/GRISSOM   SUNNY     85  69  57 SW16      29.90F
MARION*        SUNNY     83  67  58 SW10      29.94F HAZE

$$
INZ028>050-021800-
CENTRAL INDIANA

CITY           SKY/WX    TMP DP  RH WIND       PRES   REMARKS
LAFAYETTE      SUNNY     84  70  62 SW12G22   29.90F
KOKOMO*        SUNNY     84  68  58 SW17      29.93F
MUNCIE*        SUNNY     82  65  56 SW15      29.95F
INDIANAPOLIS   MOSUNNY   84  66  54 S13       29.95S

$$
MIZ043>046-050>051-056>058-064>065-071>073-077>080-021800-
SOUTHWEST LOWER MICHIGAN

CITY           SKY/WX    TMP DP  RH WIND       PRES   REMARKS
BATTLE CREEK   SUNNY     88  67  49 SW24G30   29.82F
BENTON HARBOR  SUNNY     86  67  52 SW20G29   29.82F
COLDWATER*     SUNNY     83  67  58 SW13G24   29.85F
HILLSDALE*     SUNNY     85  67  54 SW15      29.87F
HOLLAND        SUNNY     85  66  53 SW21G31   29.79F
GRAND RAPIDS   PTSUNNY   88  66  48 W20G26    29.79F
KALAMAZOO      SUNNY     87  67  51 SW17      29.83F
STURGIS*       SUNNY     82  70  65 SW18G25   29.85F
THREE RIVERS*  FAIR      85  69  57 SW13G21   29.84F

$$
OHZ001>008-015>018-024>025-021800-
NORTHWEST OHIO

CITY           SKY/WX    TMP DP  RH WIND       PRES   REMARKS
WAUSEON*       FAIR      86  68  54 SW12G21   29.87F
DEFIANCE       SUNNY     86  66  51 SW12G22   29.88F
FINDLAY        SUNNY     85  66  53 SW12      29.90F
TOLEDO EXPRESS SUNNY     85  65  51 SW13G23   29.87F
TOLEDO METCALF SUNNY     87  63  44 SW16      29.88F
LIMA           SUNNY     83  64  52 SW15      29.94F

$$
AND FOR LAKE MICHIGAN COASTAL AND OPEN LAKE BUOY OBSERVATIONS

STATION/POSITION TEMP    WIND        PRES    VSBY  WAVE
                 AIR SEA DIR/SP/G                  HT/PER
                 (F)     (DEG/KT/KT) (MB)    (MI)  (FT/S)
CALUMET HARBOR    85     230/ 13/ 22   N/A
MICHIGAN CITY     81     190/ 18/ 23   N/A
BURNS HARBOR      84     210/ 19/ 25 1010.2F
SAINT JOSEPH      78     180/ 12/ 15 1010.8F
4 MI NW BRIDGMAN  76 74  250/ 10/ 12   N/A           2/ 3
MICHIGAN CITY     79 74  240/ 12/ 16   N/A           2/ 3

$$
&&



USA.gov is the U.S. government's official web portal to all federal, state and local government web resources and services.